[[{"header":{"parameterUnit":"m.s-1","parameterCategory":1,"la1":30.2991,"la2":30.254,"lo1":-89.0895,"lo2":-89.0444,"dy":0.0017,"dx":0.0017,"nx":28,"ny":28,"refTime":"2024-03-01T03:00:00:Z","depth":0,"parameterNumber":2,"parameterNumberName":"U-component_of_WINDS"},"data":[0,0,0,0,0,0,0,0,0,0,0,0,0,0,0,0,0,0,0,0,0,0,0,0,0,0,0,0,0,0,0,0,0,0,0,0,0,0,0,0,0,0,0,0,0,0,0,0,0,0,0,0,0,0,0,0,0,0,-3.7168,-3.7167,0,-3.7148,-3.7148,-3.7148,-3.6997,-3.6993,-3.6989,-3.6986,-3.6972,-3.6975,-3.6978,0,0,0,0,0,0,0,0,0,0,0,0,0,-3.708,-3.7082,-3.7168,-3.7167,-3.7167,-3.7148,-3.7148,-3.7148,-3.6997,-3.6993,-3.6988,-3.6984,-3.6971,-3.6975,-3.6978,0,0,0,0,0,0,0,0,0,0,0,0,0,-3.7095,-3.7083,-3.7168,-3.709,-3.7083,-3.7148,-3.7148,-3.7148,-3.6998,-3.6993,-3.6987,-3.6982,-3.697,-3.6974,-3.6979,-3.712,0,0,-3.6993,-3.6995,0,0,0,0,0,0,0,0,-3.7094,-3.7099,-3.7101,-3.7095,-3.7087,-3.7069,-3.7112,-3.7139,-3.7,-3.7031,-3.6986,-3.6979,-3.7009,-3.701,-3.7019,-3.7119,-3.7118,-3.6993,-3.6996,-3.6998,-3.7,0,0,0,0,0,0,0,-3.7094,-3.7099,-3.716,-3.7102,-3.7093,-3.7057,-3.7053,-3.7116,-3.7052,-3.7027,-3.7016,-3.7016,-3.7004,-3.7015,-3.7018,-3.7118,-3.6993,-3.6997,-3.7,-3.7002,-3.7334,-3.734,0,0,0,0,0,0,-3.7103,-3.7099,-3.7161,-3.7159,-3.7077,-3.7064,-3.7059,-3.7081,-3.7051,-3.704,-3.7021,-3.7009,-3.701,-3.7012,-3.7017,-3.718,-3.6998,-3.7003,-3.7005,-3.7328,-3.7335,-3.7342,0,0,0,0,0,0,-3.7101,-3.711,-3.7161,-3.7126,-3.713,-3.7071,-3.7097,-3.7083,-3.7094,-3.7045,-3.7034,-3.7043,-3.7005,-3.701,-3.7095,-3.7177,-3.7005,-3.7009,-3.7321,-3.733,-3.7339,-3.7508,0,0,0,0,0,0,-3.7099,-3.711,-3.7162,-3.7128,-3.7132,-3.7239,-3.7102,-3.7087,-3.7101,-3.7086,-3.7063,-3.7054,-3.7001,-3.7089,-3.71,-3.7181,-3.7013,-3.7313,-3.7325,-3.7336,-3.7495,-3.7522,-3.7545,0,0,0,0,0,-3.7097,-3.7211,-3.7165,-3.7173,-3.7195,-3.7244,-3.7246,-3.7182,-3.7109,-3.7161,-3.713,-3.7055,-3.7167,-3.7099,-3.711,-3.7194,-3.7308,-3.7322,-3.7335,-3.7484,-3.7517,-3.7544,0,0,0,0,0,0,-3.7258,-3.7205,-3.7154,-3.726,-3.7258,-3.7218,-3.7282,-3.7218,-3.7238,-3.7223,-3.7143,-3.7139,-3.7237,-3.7223,-3.7149,-3.7329,-3.7224,-3.7241,-3.7334,-3.7365,-3.7389,-3.7391,-3.7016,0,0,0,0,0,-3.7305,-3.7347,-3.73,-3.7399,-3.74,-3.7342,-3.7361,-3.7311,-3.7305,-3.7304,-3.7279,-3.7279,-3.7313,-3.7338,-3.7368,-3.7492,-3.7486,-3.7555,-3.758,-3.7601,-3.7617,-3.7683,-3.7713,-3.7386,-3.7386,-3.7386,0,0,-3.7404,-3.7381,-3.7413,-3.7431,-3.7422,-3.747,-3.7342,-3.7397,-3.7432,-3.7313,-3.7391,-3.7374,-3.7368,-3.7474,-3.7519,-3.7465,-3.7706,-3.7618,-3.7635,-3.7639,-3.77,-3.7731,-3.7759,-3.7396,-3.7394,-3.7392,0,0,-3.7609,-3.7595,-3.7676,-3.7671,-3.766,-3.762,-3.764,-3.7611,-3.7594,-3.7671,-3.7583,-3.7624,-3.7685,-3.7685,-3.7693,-3.7899,-3.7831,-3.7911,-3.8042,-3.8107,-3.8133,-3.8156,-3.823,-3.8258,-3.7926,-3.7927,-3.7927,0,-3.7734,-3.78,-3.7726,-3.7787,-3.7798,-3.7691,-3.7774,-3.7773,-3.7773,-3.7784,-3.7724,-3.7799,-3.7787,-3.7892,-3.7942,-3.7952,-3.7973,-3.7913,-3.8135,-3.8157,-3.8177,-3.8247,-3.8275,-3.7937,-3.7935,-3.7934,-3.7934,0,-3.7955,-3.8002,-3.8069,-3.807,-3.8089,-3.8161,-3.81,-3.8128,-3.8077,-3.8045,-3.8126,-3.8108,-3.8132,-3.8153,-3.8105,-3.8252,-3.8219,-3.8149,-3.8042,-3.8219,-3.8284,-3.831,-3.7951,-3.7947,-3.7944,-3.7942,0,0,-3.8261,-3.822,-3.8246,-3.8245,-3.8226,-3.8262,-3.8329,-3.8351,-3.8377,-3.8382,-3.8437,-3.8492,-3.8426,-3.8436,-3.8386,-3.8444,-3.8609,-3.8366,-3.8364,-3.8412,-3.8772,-3.8826,-3.8858,-3.8564,-3.8569,-3.8573,-3.8773,0,-3.8458,-3.8569,-3.8505,-3.8626,-3.867,-3.8569,-3.8628,-3.8624,-3.8596,-3.863,-3.86,-3.864,-3.855,-3.8555,-3.8607,-3.8578,-3.8681,-3.8563,-3.8617,-3.862,-3.8622,-3.8892,-3.8949,-3.9138,-3.8798,-3.8802,-3.8805,0,-3.8703,-3.8716,-3.8841,-3.8813,-3.8829,-3.8883,-3.8899,-3.8932,-3.8926,-3.8902,-3.8913,-3.8849,-3.8916,-3.8811,-3.8902,-3.8823,-3.8842,-3.8832,-3.8837,-3.884,-3.8724,-3.8903,-3.9197,-3.9226,-3.8844,-3.8841,-3.8838,0,-3.8914,-3.8963,-3.9044,-3.9047,-3.9017,-3.9057,-3.9047,-3.9035,-3.9052,-3.9067,-3.9078,-3.9101,-3.9114,-3.9134,-3.908,-3.9008,-3.9179,-3.9069,-3.9163,-3.9165,-3.9204,-3.9202,-3.9506,-3.9215,-3.9215,-3.9214,-3.9214,0,-3.9141,-3.9222,-3.9138,-3.9189,-3.9277,-3.9204,-3.9294,-3.9273,-3.9263,-3.9309,-3.9224,-3.927,-3.9194,-3.9233,-3.9191,-3.9275,-3.9281,-3.9265,-3.9253,-3.9273,-3.9275,-3.9284,-3.927,-3.9222,-3.922,-3.9219,-3.9218,0,-3.9392,-3.9339,-3.9421,-3.9386,-3.9379,-3.9446,-3.9416,-3.9462,-3.9428,-3.9488,-3.9497,-3.9445,-3.9486,-3.9434,-3.9471,-3.9443,-3.9556,-3.9524,-3.9558,-3.9549,-3.9646,-3.9638,-3.9967,-4.0007,-3.969,-3.9694,-3.9696,0,-3.9541,-3.96,-3.9571,-3.9595,-3.9589,-3.9628,-3.9645,-3.9576,-3.9598,-3.9596,-3.9643,-3.9677,-3.9699,-3.977,-3.9737,-3.9766,-3.9734,-3.9847,-3.9738,-3.9756,-3.9737,-3.9734,-3.9741,-3.987,-3.9874,-3.9877,-3.988,0,-3.9811,-3.9782,-3.9808,-3.9827,-3.985,-3.9862,-3.9867,-3.9892,-3.982,-3.9849,-3.9889,-3.9907,-3.9944,-3.9979,-3.9998,-3.9989,-3.9924,-3.9914,-3.9937,-3.9959,-3.9976,-3.9969,-3.962,-3.9907,-3.9904,-3.9902,-3.9901,-3.99,-4.0015,-4.0064,-4.0051,-4.0084,-4.0081,-4.0088,-4.013,-4.0101,-4.0132,-4.0155,-4.0113,-4.0165,-4.0158,-4.0177,-4.0176,-4.0216,-4.0168,-4.0201,-4.021,-4.022,-4.0235,-3.9969,-4.022,-4.0219,-4.0218,-4.0217,-4.0217,0,-4.0281,-4.0268,-4.0299,-4.0309,-4.0336,-4.0269,-4.0273,-4.03,-4.0345,-4.0344,-4.0368,-4.0415,-4.0449,-4.0419,-4.0447,-4.0486,-4.0456,-4.0495,-4.0492,-4.0492,-4.0276,-4.0253,-4.0519,-4.0519,-4.0519,-4.0519,-4.0518,-4.0518,-4.0423,-4.0502,-4.0471,-4.0549,-4.0535,-4.0583,-4.059,-4.0598,-4.0596,-4.0651,-4.0678,-4.0658,-4.0645,-4.0672,-4.0701,-4.0691,-4.0706,-4.0757,-4.0737,-4.0536,-4.0507,-4.0479,-4.0457,-4.076,-4.0761,-4.0949,-4.0951,-4.0952]},{"header":{"parameterUnit":"m.s-1","parameterCategory":1,"la1":30.2991,"la2":30.254,"lo1":-89.0895,"lo2":-89.0444,"dy":0.0017,"dx":0.0017,"nx":28,"ny":28,"refTime":"2024-03-01T03:00:00:Z","depth":0,"parameterNumber":3,"parameterNumberName":"V-component_of_WINDS"},"data":[0,0,0,0,0,0,0,0,0,0,0,0,0,0,0,0,0,0,0,0,0,0,0,0,0,0,0,0,0,0,0,0,0,0,0,0,0,0,0,0,0,0,0,0,0,0,0,0,0,0,0,0,0,0,0,0,0,0,-3.1525,-3.1525,0,-3.153,-3.153,-3.153,-3.1488,-3.1487,-3.1486,-3.1485,-3.1489,-3.1491,-3.1492,0,0,0,0,0,0,0,0,0,0,0,0,0,-3.148,-3.1481,-3.1525,-3.1525,-3.1525,-3.153,-3.153,-3.153,-3.1489,-3.1487,-3.1486,-3.1485,-3.1489,-3.149,-3.1492,0,0,0,0,0,0,0,0,0,0,0,0,0,-3.1493,-3.1481,-3.1525,-3.1505,-3.1504,-3.153,-3.153,-3.153,-3.1489,-3.1487,-3.1486,-3.1484,-3.1489,-3.149,-3.1492,-3.1537,0,0,-3.1497,-3.1498,0,0,0,0,0,0,0,0,-3.1493,-3.1495,-3.1508,-3.1507,-3.1505,-3.1507,-3.1515,-3.1532,-3.1489,-3.1495,-3.1485,-3.1483,-3.1497,-3.1498,-3.1502,-3.1537,-3.1538,-3.1498,-3.1499,-3.1499,-3.15,0,0,0,0,0,0,0,-3.1492,-3.1495,-3.1527,-3.1508,-3.1506,-3.1496,-3.1496,-3.1518,-3.1505,-3.1494,-3.1491,-3.1492,-3.1495,-3.1501,-3.1502,-3.1538,-3.1498,-3.1499,-3.15,-3.1501,-3.1608,-3.161,0,0,0,0,0,0,-3.1494,-3.1494,-3.1527,-3.1527,-3.1494,-3.1498,-3.1498,-3.1508,-3.1505,-3.1503,-3.1493,-3.149,-3.1498,-3.15,-3.1502,-3.1553,-3.1499,-3.1501,-3.1502,-3.1606,-3.1608,-3.161,0,0,0,0,0,0,-3.1493,-3.1497,-3.1526,-3.151,-3.1513,-3.15,-3.1512,-3.1509,-3.1514,-3.1504,-3.1502,-3.1501,-3.1497,-3.1499,-3.1528,-3.1552,-3.1502,-3.1503,-3.1604,-3.1607,-3.1609,-3.1656,0,0,0,0,0,0,-3.1492,-3.1497,-3.1514,-3.151,-3.1514,-3.1553,-3.1513,-3.151,-3.1517,-3.1513,-3.1511,-3.1509,-3.1496,-3.1526,-3.153,-3.1554,-3.1505,-3.1602,-3.1605,-3.1608,-3.1652,-3.166,-3.1667,0,0,0,0,0,-3.149,-3.1528,-3.1515,-3.152,-3.1535,-3.1555,-3.1557,-3.1541,-3.1519,-3.1536,-3.153,-3.1509,-3.1549,-3.1529,-3.1533,-3.1558,-3.16,-3.1604,-3.1608,-3.1649,-3.1659,-3.1667,0,0,0,0,0,0,-3.1535,-3.1527,-3.1513,-3.1551,-3.1554,-3.1548,-3.1569,-3.1552,-3.1561,-3.1556,-3.1536,-3.1536,-3.1568,-3.1566,-3.1544,-3.1601,-3.1571,-3.1576,-3.1601,-3.161,-3.1617,-3.1616,-3.1506,0,0,0,0,0,-3.155,-3.1567,-3.1558,-3.1592,-3.1594,-3.1582,-3.1589,-3.1577,-3.1579,-3.158,-3.1576,-3.1579,-3.1591,-3.1601,-3.1612,-3.1652,-3.165,-3.1671,-3.1679,-3.1685,-3.1689,-3.1708,-3.1717,-3.1623,-3.1623,-3.1623,0,0,-3.158,-3.1577,-3.1589,-3.1601,-3.1602,-3.1619,-3.1583,-3.1603,-3.1615,-3.1583,-3.1609,-3.1607,-3.1608,-3.1642,-3.1657,-3.1642,-3.1714,-3.169,-3.1694,-3.1695,-3.1713,-3.1722,-3.173,-3.1626,-3.1625,-3.1625,0,0,-3.1642,-3.1643,-3.167,-3.1671,-3.1673,-3.1664,-3.167,-3.1667,-3.1663,-3.1689,-3.1665,-3.1679,-3.1703,-3.1704,-3.1708,-3.177,-3.175,-3.1774,-3.1811,-3.183,-3.1838,-3.1844,-3.1864,-3.1872,-3.1779,-3.1779,-3.1779,0,-3.1679,-3.1704,-3.1687,-3.1707,-3.1713,-3.1684,-3.1711,-3.1713,-3.1719,-3.1723,-3.1705,-3.1733,-3.1732,-3.1765,-3.178,-3.1785,-3.1791,-3.1774,-3.1838,-3.1844,-3.185,-3.1869,-3.1877,-3.1782,-3.1781,-3.1781,-3.1781,0,-3.1748,-3.1766,-3.1788,-3.1793,-3.1801,-3.1825,-3.181,-3.182,-3.1806,-3.1799,-3.1825,-3.1823,-3.1833,-3.184,-3.1827,-3.1871,-3.1861,-3.1842,-3.1811,-3.1862,-3.1879,-3.1887,-3.1786,-3.1785,-3.1784,-3.1783,0,0,-3.184,-3.1834,-3.1842,-3.1843,-3.1842,-3.1855,-3.1877,-3.1886,-3.1894,-3.1899,-3.1916,-3.1936,-3.1917,-3.1921,-3.1908,-3.1925,-3.1972,-3.1903,-3.1903,-3.1915,-3.2018,-3.2032,-3.204,-3.1959,-3.1961,-3.1962,-3.2017,0,-3.19,-3.1937,-3.1921,-3.1959,-3.1974,-3.1947,-3.1966,-3.1967,-3.196,-3.1971,-3.1964,-3.1978,-3.1953,-3.1955,-3.197,-3.1963,-3.1992,-3.1959,-3.1974,-3.1975,-3.1973,-3.205,-3.2065,-3.2117,-3.2024,-3.2025,-3.2026,0,-3.1975,-3.1981,-3.2021,-3.2015,-3.2021,-3.2038,-3.2044,-3.2056,-3.2056,-3.2049,-3.2054,-3.2037,-3.2057,-3.2027,-3.2054,-3.2032,-3.2037,-3.2035,-3.2036,-3.2036,-3.2003,-3.205,-3.2133,-3.2141,-3.2037,-3.2036,-3.2035,0,-3.2036,-3.2054,-3.208,-3.2082,-3.2076,-3.2088,-3.2087,-3.2085,-3.2091,-3.2096,-3.21,-3.2108,-3.2112,-3.2118,-3.2104,-3.2084,-3.2132,-3.2101,-3.2127,-3.2127,-3.2137,-3.2136,-3.2221,-3.2143,-3.2143,-3.2143,-3.2143,0,-3.2103,-3.2128,-3.2107,-3.2122,-3.2149,-3.213,-3.2157,-3.2152,-3.215,-3.2164,-3.2141,-3.2154,-3.2135,-3.2146,-3.2135,-3.2158,-3.216,-3.2155,-3.2151,-3.2156,-3.2157,-3.2159,-3.2154,-3.2145,-3.2144,-3.2144,-3.2144,0,-3.2175,-3.2162,-3.2188,-3.218,-3.2178,-3.2198,-3.2191,-3.2205,-3.2196,-3.2214,-3.2217,-3.2203,-3.2215,-3.2201,-3.2212,-3.2204,-3.2235,-3.2227,-3.2235,-3.2232,-3.2257,-3.2254,-3.2344,-3.2355,-3.2272,-3.2273,-3.2273,0,-3.2219,-3.2237,-3.223,-3.2238,-3.2237,-3.2249,-3.2255,-3.2236,-3.2243,-3.2243,-3.2257,-3.2267,-3.2273,-3.2293,-3.2284,-3.2292,-3.2283,-3.2314,-3.2284,-3.2288,-3.2281,-3.228,-3.2281,-3.232,-3.2321,-3.2322,-3.2322,0,-3.2297,-3.2289,-3.2297,-3.2303,-3.231,-3.2314,-3.2317,-3.2324,-3.2305,-3.2313,-3.2325,-3.233,-3.234,-3.235,-3.2355,-3.2352,-3.2334,-3.2332,-3.2338,-3.2342,-3.2345,-3.2342,-3.225,-3.233,-3.2329,-3.2328,-3.2328,-3.2328,-3.2354,-3.2369,-3.2365,-3.2375,-3.2375,-3.2377,-3.2389,-3.2381,-3.2391,-3.2397,-3.2386,-3.24,-3.2398,-3.2403,-3.2402,-3.2412,-3.2399,-3.2408,-3.241,-3.2412,-3.2415,-3.2345,-3.2414,-3.2413,-3.2413,-3.2413,-3.2413,0,-3.2429,-3.2426,-3.2435,-3.2438,-3.2446,-3.2428,-3.2429,-3.2436,-3.2448,-3.2448,-3.2455,-3.2467,-3.2476,-3.2467,-3.2474,-3.2484,-3.2475,-3.2486,-3.2484,-3.2484,-3.2428,-3.2421,-3.2493,-3.2493,-3.2493,-3.2493,-3.2492,-3.2492,-3.2469,-3.2492,-3.2483,-3.2504,-3.25,-3.2513,-3.2515,-3.2517,-3.2516,-3.2531,-3.2537,-3.2532,-3.2528,-3.2534,-3.2541,-3.2538,-3.2541,-3.2554,-3.2548,-3.2496,-3.2488,-3.2481,-3.2474,-3.2555,-3.2555,-3.2603,-3.2604,-3.2604]}]]